Content
SEND FEEDBACK

Daily
Averages
Monthly
Summary
Malaysia

KOTA KINABALU, MALAYSIA


Home > Asia > Malaysia
Elevation: 10 feet     Latitude: 05 55N     Longitude: 116 03E

WEATHER
 
SELECT A DAY
Number of Records: 279,451;   Date Range: 8/9/96 - 11/20/14
 
SHARE

PRINT THIS DATA

[ ← Previous Day ]
WEATHER ALMANAC - JUNE 12, 2013
[ Next Day → ]
[ °C ]   °F
Weather ElementAverageHighLow
Temperature80.8 °F93.2 °F (12:30 pm)75.2 °F (4:00 pm)
Dewpoint73.9 °F82.4 °F (1:00 pm)69.8 °F (5:00 am)
Humidity79.9 %100 % (4:00 pm)46 % (11:00 am)
Barometer29.73 in29.80 in (11:30 pm)29.71 in (1:30 am)
Wind Speed6.6 mph16.1 mph (2:30 pm)
Wind Gust20.7 mph (1:00 pm)
Weather ElementAverage
Visibility6 mi
Wind DirectionSSE (152.7 °)

Weather ElementTotal
Precipitation---
Cooling Degree Days19.2 (Base 65)
Growing Degree Days34.2 (Base 50)
Averaged from 55 records on June 12, 2013
WEATHER CONDITIONS BREAKOUT
WIND DIRECTION BREAKOUT
WEATHER BY HOUR - JUNE 12, 2013
[ °C ]   °F
Local TimeTemperatureDewpointHumidityBarometerVisibilityWind DirectionWind SpeedGust SpeedPrecipitationEventsConditions
12:30 AM78.8 °F73.4 °F83 %29.74 in6.2 miESE (110°)5.8 mphMostly Cloudy
1:00 AM78.8 °F73.4 °F83 %29.74 in6.2 miEast (100°)6.9 mphMostly Cloudy
1:30 AM78.8 °F71.6 °F78 %29.71 in6.2 miESE (110°)8.1 mphMostly Cloudy
2:00 AM79.0 °F71.0 °F71 %29.73 in11.0 miESE (110°)8.1 mphScattered Clouds
2:00 AM78.8 °F71.6 °F78 %29.71 in6.2 miESE (110°)8.1 mphMostly Cloudy
2:30 AM78.8 °F71.6 °F78 %29.71 in6.2 miESE (110°)5.8 mphMostly Cloudy
3:00 AM78.8 °F71.6 °F78 %29.71 in6.2 miEast (100°)6.9 mphMostly Cloudy
3:30 AM78.8 °F71.6 °F78 %29.71 in6.2 miEast (100°)6.9 mphMostly Cloudy
4:00 AM78.8 °F71.6 °F78 %29.71 in6.2 miESE (110°)6.9 mphMostly Cloudy
4:30 AM77.0 °F71.6 °F83 %29.71 in6.2 miEast (100°)8.1 mphMostly Cloudy
5:00 AM77.0 °F71.0 °F75 %29.73 in11.0 miEast (100°)5.8 mphScattered Clouds
5:00 AM77.0 °F69.8 °F78 %29.71 in6.2 miEast (100°)5.8 mphMostly Cloudy
5:30 AM77.0 °F69.8 °F78 %29.71 in6.2 miEast (100°)6.9 mphMostly Cloudy
6:00 AM77.0 °F71.6 °F83 %29.71 in6.2 miEast (100°)5.8 mphMostly Cloudy
6:30 AM77.0 °F69.8 °F78 %29.71 in6.2 miESE (110°)5.8 mphMostly Cloudy
7:00 AM78.8 °F69.8 °F74 %29.71 in6.2 miESE (110°)6.9 mphMostly Cloudy
7:30 AM82.4 °F71.6 °F70 %29.71 in6.2 miESE (120°)4.6 mphMostly Cloudy
8:00 AM85.0 °F73.0 °F60 %29.75 in17.0 miSouth (190°)2.3 mphScattered Clouds
8:00 AM84.2 °F73.4 °F70 %29.74 in6.2 miSouth (190°)2.3 mphMostly Cloudy
8:30 AM86.0 °F73.4 °F66 %29.74 in6.2 miSW (220°)3.5 mphMostly Cloudy
9:00 AM87.8 °F73.4 °F62 %29.74 in6.2 miSSW (200°)5.8 mphMostly Cloudy
9:30 AM89.6 °F75.2 °F62 %29.77 in6.2 miSW (220°)6.9 mphMostly Cloudy
10:00 AM89.6 °F75.2 °F62 %29.74 in6.2 miSW (220°)6.9 mphMostly Cloudy
10:30 AM91.4 °F71.6 °F52 %29.74 in6.2 miSSW (210°)6.9 mphMostly Cloudy
11:00 AM91.0 °F72.0 °F46 %29.75 in17.0 miSW (220°)6.9 mphScattered Clouds
11:00 AM91.4 °F73.4 °F55 %29.74 in6.2 miSW (220°)6.9 mphMostly Cloudy
11:30 AM91.4 °F73.4 °F55 %29.74 in6.2 miSW (230°)6.9 mphMostly Cloudy
12:00 PM91.4 °F77.0 °F63 %29.74 in6.2 miWest (260°)3.5 mphMostly Cloudy
12:30 PM93.2 °F77.0 °F59 %29.74 in6.2 miWest (280°)3.5 mphMostly Cloudy
1:00 PM91.4 °F82.4 °F75 %29.74 in6.2 miWest (270°)6.9 mph20.7 mphMostly Cloudy
1:30 PM87.8 °F78.8 °F75 %29.74 in6.2 miWest (280°)8.1 mphMostly Cloudy
2:00 PM87.0 °F79.0 °F72 %29.73 in9.0 miWNW (300°)9.2 mphMostly Cloudy
2:00 PM87.8 °F78.8 °F75 %29.71 in6.2 miWNW (300°)9.2 mphMostly Cloudy
2:30 PM77.0 °F75.2 °F94 %29.74 in0.4 miSouth (190°)16.1 mphRain-ThunderstormHeavy Thunderstorms and Rain
3:00 PM78.8 °F77.0 °F94 %29.71 in1.9 miSouth (190°)8.1 mphRain-ThunderstormThunderstorms and Rain
3:30 PM77.0 °F75.2 °F94 %29.71 in0.9 miSE (130°)9.2 mphRain-ThunderstormHeavy Thunderstorms and Rain
4:00 PM75.2 °F75.2 °F100 %29.71 in0.5 miSE (130°)8.1 mphRain-ThunderstormHeavy Thunderstorms and Rain
4:30 PM75.2 °F75.2 °F100 %29.71 in0.5 miESE (120°)6.9 mphRain-ThunderstormHeavy Thunderstorms and Rain
5:00 PM76.0 °F75.0 °F96 %29.74 in2.0 miSE (130°)6.9 mphRain-ThunderstormThunderstorms and Rain
5:00 PM75.2 °F75.2 °F100 %29.71 in1.9 miSE (130°)6.9 mphRain-ThunderstormThunderstorms and Rain
5:30 PM75.2 °F75.2 °F100 %29.74 in3.1 miESE (120°)8.1 mphRainLight Rain
6:00 PM77.0 °F75.2 °F94 %29.74 in3.1 miESE (120°)8.1 mphRainLight Rain
6:30 PM77.0 °F75.2 °F94 %29.74 in3.1 miEast (100°)8.1 mphRainLight Rain
7:00 PM77.0 °F75.2 °F94 %29.74 in5.0 miEast (100°)6.9 mphRainLight Rain
7:30 PM77.0 °F75.2 °F94 %29.74 in6.2 miEast (100°)5.8 mphRainLight Rain
8:00 PM76.0 °F75.0 °F94 %29.76 in7.0 miESE (110°)6.9 mphRainLight Rain
8:00 PM77.0 °F75.2 °F94 %29.74 in6.2 miESE (110°)6.9 mphRainLight Rain
8:30 PM77.0 °F73.4 °F89 %29.74 in6.2 miEast (100°)5.8 mphRainLight Rain
9:00 PM77.0 °F73.4 °F89 %29.74 in6.2 miEast (100°)4.6 mphOvercast
9:30 PM77.0 °F73.4 °F89 %29.74 in6.2 miESE (110°)5.8 mphOvercast
10:00 PM77.0 °F73.4 °F89 %29.74 in6.2 miESE (110°)5.8 mphOvercast
10:30 PM77.0 °F73.4 °F89 %29.77 in6.2 miESE (110°)5.8 mphOvercast
11:00 PM76.0 °F74.0 °F90 %29.78 in11.0 miSE (130°)3.5 mphPartly Cloudy
11:00 PM77.0 °F73.4 °F89 %29.77 in6.2 miSE (130°)3.5 mphOvercast
11:30 PM77.0 °F75.2 °F94 %29.80 in3.1 miSW (220°)8.1 mphRainRain
Hourly data recorded from WBKK, located miles away from Kota Kinabalu, Malaysia







STORIES FROM OUR PARTNERS